[TLELIST] Archives

 

[TLELIST] Current TLEs

January 27th 2026 PDT

0 HST 1 20580U 90037B 26026.91231931 .00011225 00000-0 38166-3 0 9997 2 20580 28.4682 324.8514 0001799 15.4500 344.6150 15.28781740766910 0 ISS (ZARYA) 1 25544U 98067A 26027.14328214 .00011252 00000-0 21756-3 0 9997 2 25544 51.6321 277.7306 0011150 34.3982 325.7726 15.48216781549899 0 CXO 1 25867U 99040B 26029.22066446 .00000801 00000-0 00000+0 0 9997 2 25867 53.9016 120.8729 8064103 310.8270 0.4043 0.37803407 16804 ...Continue Reading

[TLELIST] Current TLEs

January 26th 2026 PDT

0 HST 1 20580U 90037B 26025.86783163 .00011062 00000-0 37628-3 0 9990 2 20580 28.4682 331.9691 0001757 3.6711 356.3897 15.28757175766757 0 ISS (ZARYA) 1 25544U 98067A 26026.17505651 .00012778 00000-0 24610-3 0 9997 2 25544 51.6321 282.5143 0011060 31.3623 328.8023 15.48192940549749 0 CXO 1 25867U 99040B 26023.93195889 .00000884 00000-0 00000-0 0 9995 2 25867 53.7667 121.1202 8071481 310.7535 0.6151 0.37802113 16786 ...Continue Reading

[TLELIST] Current TLEs

January 25th 2026 PDT

0 HST 1 20580U 90037B 26025.01917315 .00011649 00000-0 39685-3 0 9991 2 20580 28.4682 337.7521 0001714 353.5468 6.5105 15.28738228766622 0 ISS (ZARYA) 1 25544U 98067A 26025.20681506 .00014825 00000-0 28434-3 0 9997 2 25544 51.6319 287.2988 0011012 28.2365 331.9218 15.48167532549593 0 CXO 1 25867U 99040B 26023.93195889 .00000884 00000-0 00000-0 0 9995 2 25867 53.7667 121.1202 8071481 310.7535 0.6151 0.37802113 16786 ...Continue Reading

[TLELIST] Current TLEs

January 24th 2026 PDT

0 HST 1 20580U 90037B 26024.17050346 .00012636 00000-0 43133-3 0 9999 2 20580 28.4679 343.5341 0001697 343.3078 16.7462 15.28720028766490 0 ISS (ZARYA) 1 25544U 98067A 26023.72220588 .00016677 00000-0 30360-3 0 9999 2 25544 51.6325 294.6353 0007776 51.0046 309.1634 15.49596283549364 0 CXO 1 25867U 99040B 26023.93195889 .00000884 00000-0 00000-0 0 9995 2 25867 53.7667 121.1202 8071481 310.7535 0.6151 0.37802113 16786 ...Continue Reading

[TLELIST] Current TLEs

January 23rd 2026 PDT

0 HST 1 20580U 90037B 26022.60370174 .00009480 00000-0 32216-3 0 9992 2 20580 28.4683 354.2106 0001643 324.2184 35.8301 15.28686855766257 0 ISS (ZARYA) 1 25544U 98067A 26022.94831487 .00013618 00000-0 24973-3 0 9993 2 25544 51.6328 298.4677 0007749 48.1765 311.9884 15.49569219549247 0 CXO 1 25867U 99040B 26023.93195889 .00000884 00000-0 00000-0 0 9995 2 25867 53.7667 121.1202 8071481 310.7535 0.6151 0.37802113 16786 ...Continue Reading

[TLELIST] Current TLEs

January 22nd 2026 PDT

0 HST 1 20580U 90037B 26022.21199642 .00010127 00000-0 34472-3 0 9994 2 20580 28.4682 356.8795 0001648 319.5889 40.4584 15.28679599766197 0 ISS (ZARYA) 1 25544U 98067A 26022.17441205 .00016198 00000-0 29562-3 0 9998 2 25544 51.6328 302.3013 0007809 45.1395 315.0227 15.49548134549125 0 CXO 1 25867U 99040B 26018.64236405 .00000848 00000-0 00000-0 0 9997 2 25867 53.6626 121.3152 8075088 310.7798 0.4486 0.37793279 16763 ...Continue Reading

[TLELIST] Current TLEs

January 21st 2026 PDT

0 HST 1 20580U 90037B 26020.64515410 .00016760 00000-0 57579-3 0 9996 2 20580 28.4680 7.5542 0001637 298.8857 61.1574 15.28636273765951 0 ISS (ZARYA) 1 25544U 98067A 26020.88454504 .00023329 00000-0 42269-3 0 9993 2 25544 51.6331 308.6863 0007748 41.1873 318.9699 15.49488068548921 0 CXO 1 25867U 99040B 26018.64236405 .00000848 00000-0 00000-0 0 9997 2 25867 53.6626 121.3152 8075088 310.7798 0.4486 0.37793279 16763 ...Continue Reading

[TLELIST] Current TLEs

January 20th 2026 PDT

0 HST 1 20580U 90037B 26020.25343543 .00011715 00000-0 40065-3 0 9996 2 20580 28.4679 10.2230 0001633 293.2847 66.7576 15.28617704765892 0 ISS (ZARYA) 1 25544U 98067A 26020.17509289 .00021194 00000-0 38548-3 0 9999 2 25544 51.6334 312.1983 0007785 38.3265 321.8276 15.49442598548811 0 CXO 1 25867U 99040B 26018.64236405 .00000848 00000-0 00000-0 0 9997 2 25867 53.6626 121.3152 8075088 310.7798 0.4486 0.37793279 16763 ...Continue Reading

[TLELIST] Current TLEs

January 20th 2026 PDT

0 HST 1 20580U 90037B 26020.25343543 .00011715 00000-0 40065-3 0 9996 2 20580 28.4679 10.2230 0001633 293.2847 66.7576 15.28617704765892 0 ISS (ZARYA) 1 25544U 98067A 26020.17509289 .00021194 00000-0 38548-3 0 9999 2 25544 51.6334 312.1983 0007785 38.3265 321.8276 15.49442598548811 0 CXO 1 25867U 99040B 26018.64236405 .00000848 00000-0 00000-0 0 9997 2 25867 53.6626 121.3152 8075088 310.7798 0.4486 0.37793279 16763 ...Continue Reading

[TLELIST] Current TLEs

January 19th 2026 PDT

0 HST 1 20580U 90037B 26019.27412279 .00008174 00000-0 27754-3 0 9994 2 20580 28.4679 16.8945 0001656 280.0037 80.0371 15.28594222765742 0 ISS (ZARYA) 1 25544U 98067A 26019.20762778 .00013941 00000-0 25695-3 0 9995 2 25544 51.6336 316.9875 0007810 34.7495 325.4002 15.49401693548660 0 CXO 1 25867U 99040B 26018.64236405 .00000848 00000-0 00000-0 0 9997 2 25867 53.6626 121.3152 8075088 310.7798 0.4486 0.37793279 16763 ...Continue Reading
  • This mailing list is a public mailing list - anyone may join or leave, at any time.
  • This mailing list is announce-only.

International Space Station (ISS) / Hubble Space Telescope (HST) / Chandra X-Ray Observatory Orbital Data via EMAIL

Privacy Policy:

Private list